This is the latest recevied weather packets stored in our database for station/object KD9JB-1. If no packets are shown the sender has not sent any weather packets the latest 10 day(s).
| Time | Temp. | Humidity | Pressure | Rain* | Wind** | Luminosity | Snow |
|---|---|---|---|---|---|---|---|
| 1777767102 | 12.22° C | 46% | 1018.6 hPa | 0 mm | - | - | - |
| 1777766802 | 12.22° C | 43% | 1018.5 hPa | 0 mm | - | - | - |
| 1777766502 | 12.78° C | 45% | 1018.5 hPa | 0 mm | - | - | - |
| 1777766202 | 12.78° C | 44% | 1018.4 hPa | 0 mm | - | - | - |
| 1777765902 | 12.78° C | 43% | 1018.5 hPa | 0 mm | - | - | - |
| 1777765602 | 12.78° C | 43% | 1018.5 hPa | 0 mm | - | - | - |
| 1777765302 | 12.78° C | 43% | 1018.4 hPa | 0 mm | - | - | - |
| 1777765002 | 13.33° C | 43% | 1018.4 hPa | 0 mm | - | - | - |
| 1777764702 | 13.33° C | 42% | 1018.4 hPa | 0 mm | - | - | - |
| 1777764402 | 13.89° C | 43% | 1018.4 hPa | 0 mm | - | - | - |
| 1777764102 | 13.89° C | 43% | 1018.4 hPa | 0 mm | - | - | - |
| 1777763802 | 13.89° C | 43% | 1018.5 hPa | 0 mm | - | - | - |
| 1777763502 | 13.89° C | 43% | 1018.5 hPa | 0 mm | - | - | - |
| 1777763202 | 13.89° C | 43% | 1018.6 hPa | 0 mm | - | - | - |
| 1777762902 | 13.33° C | 45% | 1018.6 hPa | 0 mm | - | - | - |
| 1777762602 | 13.33° C | 47% | 1018.6 hPa | 0 mm | - | - | - |
| 1777762302 | 13.33° C | 47% | 1018.6 hPa | 0 mm | - | - | - |
| 1777762002 | 13.33° C | 47% | 1018.5 hPa | 0 mm | - | - | - |
| 1777761702 | 13.33° C | 47% | 1018.5 hPa | 0 mm | - | - | - |
| 1777761402 | 13.33° C | 46% | 1018.4 hPa | 0 mm | - | - | - |
| 1777761103 | 13.89° C | 47% | 1018.4 hPa | 0 mm | - | - | - |
| 1777760802 | 14.44° C | 45% | 1018.5 hPa | 0 mm | - | - | - |
| 1777760502 | 14.44° C | 44% | 1018.4 hPa | 0 mm | - | - | - |
| 1777760202 | 14.44° C | 44% | 1018.5 hPa | 0 mm | - | - | - |
| 1777759902 | 14.44° C | 44% | 1018.5 hPa | 0 mm | - | - | - |
* Rain latest hour (hover to see other rain measurements)
** Current wind speed in m/s (hover to see current wind gust speed)